Location: Amon Carter Post Office
(32.8281°N, 97.0484°W)
Time: 18:38:07
(UTC+00:00)

SL-4 R/B - Pass Details

Date: 09 July 2022
Orbit: 425 x 653 km, 51.6° (Epoch: 08 August)

Event Time Altitude Azimuth Distance (km) Brightness Sun altitude
Exits shadow 04:14:58 12° 30° (NNE) 1,429 4.4 -25.7°
Drops below altitude 10° 04:15:16 10° 32° (NNE) 1,545 4.5 -25.7°
Sets 04:17:30 0° 40° (NE) 2,441 5.5 -26.0°
